Terug naar catalogus

USA 171

ActiefMilitairGEO
NORAD 27937·PAYLOAD·🇺🇸 United States

Gelanceerd Sep 9, 2003 vanaf Cape Canaveral Space Force Station

Loading…

TLE

VersSource: Mike McCants

Epoch: Sep 14, 2026, 22:00 UTC

1 27937U 03041A   26257.91730201  .00000000  00000-0  00000-0 0    04
2 27937  15.2216  31.8803 0033464 258.2136 101.4179  1.00270000 14566

Volg USA 171 in realtime met AllMySat

Download on the App Store